Location: Burgerwiesen
(48.6500°N, 15.6167°E)
Time: 23:45:09
(UTC+00:00)

Cosmos 1833 Rocket - Pass Details

Date: 09 April 2020
Orbit: 834 x 838 km, 71.0° (Epoch: 03 June)

Event Time Altitude Azimuth Distance (km) Brightness Sun altitude
Exits shadow 22:20:50 19° 276° (W) 1,881 4.6 -32.7°
Maximum altitude 22:23:24 27° 315° (NW) 1,574 4.5 -32.8°
Drops below altitude 10° 22:28:08 10° 12° (NNE) 2,461 5.9 -32.9°
Sets 22:30:59 0° 24° (NNE) 3,398 6.6 -33.0°
